Lid_Strength_Index
12 13 14 12 13 14 14 16 16 14 12 14 14 14 12 12 13 13 13 13 12 12 11 12 12 11 11 10 9 8 8 8 8 8 8 8 10 10 10 10 10 9 10 11
13 15 11 11 12 13 14 15 15 14 12 13 14 14 13 13 13 12 12 12 12 12 14 13 12 12 11 10 9 9 7 8 8 7 10 11 11 12 12 11 11 11 12 12
13 12 11 11 13 14 14 15 15 14 14 15 16 16 15 13 12 12 13 11 11 12 13 14 13 12 11 11 10 10 8 8 8 11 12 13 13 13 13 13 13 13 13 14
13 11 11 13 13 12 15 13 14 14 16 18 16 19 16 14 13 13 12 11 12 13 13 13 13 13 12 11 10 9 8 8 11 11 12 12 12 12 14 13 14 14 15 15
13 12 13 13 13 11 14 13 14 15 17 18 19 19 16 15 15 13 12 11 12 13 13 14 13 12 11 10 10 9 8 11 11 11 12 11 12 14 14 15 15 15 16 16
13 12 12 12 12 12 13 14 15 16 17 20 18 17 18 16 15 14 12 11 12 14 15 14 13 12 12 11 9 8 10 11 12 12 12 13 15 15 15 15 16 16 17 17
15 14 13 12 14 13 13 15 19 20 22 20 19 19 15 14 13 13 12 12 14 15 15 15 14 13 13 12 9 10 11 12 12 12 13 14 14 14 14 15 16 17 17 18
16 17 13 13 13 14 15 15 19 23 23 21 18 20 16 14 13 13 13 14 15 15 15 15 14 13 12 11 11 10 12 13 12 13 13 14 14 14 14 15 16 17 17 17
17 16 14 14 14 12 16 17 14 18 25 23 19 17 15 14 14 13 13 15 15 15 16 15 14 13 13 12 11 11 13 13 13 13 13 14 14 15 15 16 16 17 17 17
14 17 15 14 13 14 15 14 17 18 23 24 20 19 17 15 14 13 13 13 15 15 16 15 15 14 13 13 13 14 13 14 14 14 14 14 15 15 16 16 17 17 17 17
13 15 17 15 16 16 16 17 17 16 19 22 23 18 15 14 13 13 13 14 14 15 16 16 15 15 15 15 16 15 14 14 14 14 14 15 15 16 16 17 17 18 18 18
12 14 19 16 15 14 15 15 15 18 20 19 20 17 14 14 14 14 13 14 15 15 16 16 16 16 16 16 17 16 15 15 14 14 15 15 16 17 17 18 18 18 18 18
11 15 19 17 15 15 15 15 13 15 16 17 20 17 15 15 14 14 14 14 15 15 16 17 17 16 16 16 16 15 15 15 15 15 16 16 17 18 18 18 18 18 19 19
9 14 16 17 15 15 17 16 14 14 16 16 16 14 12 15 15 13 14 14 15 15 16 17 17 16 15 16 15 16 16 15 16 16 16 17 17 17 18 18 19 19 19 19
10 15 15 14 14 15 16 15 15 15 14 15 14 14 12 11 12 11 11 13 15 15 16 16 16 16 16 16 16 16 16 16 16 16 16 17 17 17 18 19 19 19 19 19
10 15 14 15 13 14 14 14 14 14 13 13 13 13 9 11 11 12 11 12 13 14 14 14 15 15 16 15 15 16 16 16 16 17 17 17 17 18 18 18 18 19 19 19
12 13 15 17 14 14 17 14 13 14 13 12 14 12 9 11 12 11 10 12 12 12 13 14 14 15 15 15 15 16 16 16 17 17 17 17 17 18 18 18 18 19 19 19
13 14 14 17 15 21 14 13 11 11 11 11 12 11 10 10 10 10 11 11 11 11 12 12 13 14 14 14 15 15 16 16 16 17 17 17 17 18 18 18 18 18 18 19
12 13 15 18 18 16 14 15 15 13 13 10 10 10 9 9 13 10 11 11 10 10 10 11 12 13 14 15 15 16 16 16 16 16 17 17 16 17 18 18 18 18 18 18
11 12 14 16 19 20 16 16 14 11 15 16 11 10 10 13 15 11 13 13 13 13 13 13 14 15 15 16 16 16 17 17 16 16 16 16 16 16 17 17 17 17 17 16
16 14 16 16 17 15 13 15 13 16 15 18 16 15 15 13 12 14 14 14 15 14 14 15 15 15 16 16 16 17 17 17 16 16 16 16 16 16 16 16 17 17 16 17
15 16 16 15 17 19 13 15 14 13 16 16 16 15 15 14 13 14 14 14 14 14 15 16 16 17 17 16 16 17 17 16 16 15 16 15 15 15 15 15 16 16 16 16
15 13 16 14 14 13 14 14 14 14 14 16 15 13 14 14 14 15 15 15 15 16 16 17 17 17 17 16 14 15 15 15 15 15 15 14 14 14 14 14 15 16 15 15
14 13 13 13 12 12 14 14 14 14 14 14 14 14 14 15 14 15 16 15 15 17 16 18 16 17 17 16 16 15 15 14 14 14 14 14 14 14 14 14 14 14 16 16
13 13 13 14 13 14 13 13 12 12 14 15 15 14 13 14 15 15 16 17 16 17 18 17 17 17 19 18 19 19 17 15 15 15 17 15 15 16 18 19 18 18 19 16
13 13 13 13 11 11 11 12 12 13 13 14 14 15 15 14 15 16 17 17 18 18 18 17 18 18 20 20 21 21 21 17 18 20 20 20 20 20 21 21 21 16 16 15